Location: Juzet
(42.9779°N, 0.7597°E)
Time: 18:00:47
(UTC+00:00)

Cosmos 1242 Rocket - Pass Details

Date: 14 July 2020
Orbit: 448 x 487 km, 81.2° (Epoch: 12 August)

Event Time Altitude Azimuth Distance (km) Brightness Sun altitude
Rises 03:17:17 0° 345° (NNW) 2,464 6.6 -11.5°
Reaches altitude 10° 03:19:23 10° 340° (NNW) 1,589 5.5 -11.2°
Maximum altitude 03:22:45 52° 263° (W) 572 2.6 -10.7°
Drops below altitude 10° 03:26:08 10° 187° (S) 1,587 4.7 -10.3°
Enters shadow 03:26:28 - 186° (S) 1,724 4.9 -10.2°
